Wind_Speed
16 13 13 12 8 9 10 7 4 7 8 6 3 8 6 4 10 4 9 6 2 10 14 14 14 16 12 10 9 11 12 12 10 11 12 15 20 24 22 23 25 24 23 25 26 22 17 12 13
18 16 15 14 10 13 11 10 12 8 5 4 0 3 4 4 9 6 10 4 5 9 11 12 11 17 16 15 12 12 14 15 13 12 13 14 16 19 21 20 21 23 24 26 26 25 24 18 11
20 18 17 12 18 20 7 12 9 1 5 5 1 1 5 6 7 7 3 3 6 8 10 9 8 12 15 15 14 13 13 13 13 13 13 12 14 16 18 19 19 20 21 28 29 30 28 26 17
21 19 20 20 19 19 14 15 5 1 8 4 3 4 7 7 8 6 4 6 7 8 11 6 5 10 12 11 12 10 9 11 11 12 12 12 12 14 16 17 18 18 20 22 25 28 31 31 26
19 21 24 23 26 19 19 13 2 3 7 5 1 4 1 12 8 5 5 4 5 9 10 7 9 11 12 12 9 9 9 9 9 10 13 13 13 12 13 15 16 17 18 20 22 22 24 28 30
20 24 20 31 23 23 20 17 8 5 8 1 7 1 5 6 5 6 2 2 3 4 5 4 9 12 13 16 15 12 11 11 10 11 14 16 15 15 15 15 15 15 17 18 20 21 21 22 26
21 26 30 28 18 26 20 16 15 8 6 10 5 6 2 5 9 7 7 8 6 5 3 7 11 14 11 16 18 18 16 13 13 13 14 18 18 18 18 18 16 16 17 18 19 20 21 21 23
22 26 32 33 27 21 11 15 16 12 6 10 9 11 9 5 3 6 8 7 10 11 10 11 16 14 13 19 22 17 19 19 16 16 15 17 21 22 21 21 20 18 18 19 20 21 21 22 23
28 31 35 34 32 23 16 18 22 22 17 8 4 11 9 2 5 7 9 11 11 17 14 14 16 18 19 16 16 16 17 21 22 18 19 18 19 23 25 24 24 21 22 23 22 22 23 24 24
36 40 39 31 30 27 25 20 21 29 29 24 14 13 12 19 15 14 13 12 13 14 21 20 19 19 19 18 19 20 20 19 20 17 16 21 22 20 25 27 28 25 24 27 25 24 26 26 27
42 48 38 36 31 31 29 30 28 36 35 30 31 31 28 29 28 26 23 14 14 16 17 19 21 18 22 23 24 24 24 23 23 17 15 19 24 23 22 25 28 27 28 28 28 26 28 27 27
47 49 44 40 37 34 33 36 40 40 41 37 37 34 34 43 39 40 39 31 21 22 21 21 19 22 25 26 27 26 25 26 24 21 17 18 22 25 21 22 25 27 29 30 30 29 32 29 28
51 51 48 45 42 39 38 40 42 48 42 40 41 38 42 38 44 45 45 41 33 28 26 25 26 26 27 30 29 30 28 27 26 23 22 20 26 28 25 23 24 26 28 30 29 30 33 31 32
53 51 51 48 46 42 42 45 44 51 39 40 40 40 40 40 44 44 41 46 42 35 34 33 36 33 32 31 29 30 30 31 26 27 25 23 26 31 29 27 26 27 25 27 26 29 32 33 33
52 51 44 49 48 47 43 52 60 50 44 45 41 39 40 43 45 46 43 43 40 42 43 41 38 31 32 29 30 31 28 27 25 29 21 24 33 31 32 30 27 28 23 25 27 30 32 34 33
41 43 50 53 44 42 36 63 55 50 46 48 47 46 43 43 49 48 48 48 48 45 37 31 29 30 32 30 31 29 30 27 27 28 28 20 31 30 31 30 29 30 22 28 32 32 34 32 30
36 42 45 44 44 34 43 68 54 46 46 49 49 49 50 48 46 47 51 48 45 44 40 28 29 31 31 33 33 32 26 30 29 30 27 24 25 25 29 29 28 24 24 26 34 33 33 29 28
34 36 29 28 30 28 41 61 50 46 44 47 47 46 48 52 51 47 47 48 48 41 30 30 29 26 26 30 34 32 29 28 31 32 25 22 22 27 28 24 25 26 23 28 31 32 29 28 29
15 21 18 19 21 19 29 37 39 37 43 46 46 46 45 47 48 50 50 45 38 32 28 28 26 28 30 29 30 32 32 30 30 28 22 21 24 26 23 24 23 26 26 28 31 29 28 28 30
37 24 17 15 22 27 35 41 42 44 49 50 49 47 46 44 41 39 37 34 27 24 25 28 29 31 23 25 26 29 31 30 28 23 22 25 24 23 23 23 23 29 29 29 27 27 26 27 24
23 31 32 26 24 25 28 43 47 49 50 49 49 46 43 39 34 28 28 27 27 27 27 29 30 27 25 23 25 27 25 30 27 24 26 24 21 21 20 22 27 29 27 24 26 25 23 21 19
26 17 13 13 15 20 24 21 44 46 48 46 45 43 41 38 34 26 24 26 28 27 27 27 30 29 26 24 26 27 20 25 24 23 23 23 23 19 22 23 27 24 23 24 23 21 18 15 16
26 26 23 20 17 23 30 17 58 31 39 37 33 32 32 32 31 30 32 32 32 31 28 25 28 29 30 24 21 21 18 23 26 25 27 24 19 19 22 26 25 23 23 19 19 16 13 12 13
15 14 19 16 21 10 31 21 57 39 42 32 32 28 26 17 16 17 15 19 19 20 22 24 24 28 25 19 16 17 20 21 22 25 23 16 16 23 27 23 22 19 17 16 13 12 10 11 12
15 18 4 3 5 8 13 23 53 4 4 6 1 6 1 10 15 14 15 16 14 13 20 23 18 15 13 14 16 20 21 23 23 21 11 18 24 23 18 18 15 15 14 11 11 9 10 11 10
13 22 7 6 5 5 27 18 21 22 28 27 22 16 7 13 14 17 14 10 9 13 13 10 11 12 12 14 16 18 18 16 13 17 17 18 15 15 15 13 13 12 11 11 9 9 11 9 8
13 24 29 6 3 2 12 27 31 9 9 4 10 19 17 13 17 19 14 10 12 12 12 8 8 10 11 13 16 14 11 11 11 11 11 11 12 12 11 12 12 11 10 9 8 10 10 8 5
9 10 17 11 4 5 9 16 18 6 10 2 7 15 13 15 23 17 12 11 11 12 11 9 8 8 11 12 11 9 9 10 11 11 11 11 11 10 10 10 9 8 8 8 10 11 10 6 5
14 15 11 14 19 3 3 5 3 6 4 12 12 15 12 14 21 12 12 11 9 10 9 8 9 7 8 9 9 10 12 12 11 10 10 11 10 9 8 8 7 8 8 9 9 9 9 7 6
11 19 21 16 10 22 11 11 10 4 6 6 14 7 13 12 14 12 12 10 9 11 10 7 8 9 9 9 10 11 9 9 10 10 11 10 8 6 5 5 5 6 6 7 8 9 9 7 5
Wind_Direction
222 215 208 213 208 226 213 191 171 146 97 108 66 146 139 260 187 200 202 200 345 32 38 29 18 38 40 8 347 344 345 344 345 347 359 9 16 14 17 23 24 28 25 18 15 15 9 341 312
220 210 207 212 223 224 216 169 131 118 133 140 101 187 191 198 200 211 179 195 47 21 32 24 17 36 47 39 24 6 356 346 341 334 340 351 5 9 9 14 18 24 24 18 20 19 14 7 341
221 209 210 213 222 225 197 176 171 322 182 157 198 308 311 252 197 190 163 72 27 19 14 359 356 36 38 21 26 31 21 3 345 333 323 334 352 0 3 5 9 15 19 22 22 21 17 12 2
228 213 216 220 222 221 182 161 152 105 159 183 1 302 334 212 169 136 69 49 31 10 14 16 353 18 21 30 4 6 3 4 345 322 310 315 331 344 347 354 359 3 7 12 16 16 14 13 7
226 223 220 228 224 213 190 177 171 148 152 118 179 301 356 174 165 143 73 38 26 2 2 360 341 354 359 359 339 348 338 340 338 318 302 300 306 312 325 335 346 353 357 359 3 8 8 8 8
221 223 232 234 228 233 214 217 198 97 184 53 66 326 145 240 173 155 140 272 294 334 342 342 336 334 342 345 339 324 322 317 316 305 291 284 286 296 308 314 326 337 342 344 349 356 359 1 4
237 227 232 240 235 239 228 217 203 186 131 116 117 61 303 134 186 201 288 308 262 291 328 302 307 319 316 335 327 325 310 312 306 299 295 288 286 289 294 301 308 317 325 328 333 341 346 351 353
243 240 238 242 238 236 220 213 202 201 156 143 130 132 99 128 250 285 304 304 278 258 287 309 310 308 299 318 320 313 318 279 296 290 290 298 289 285 286 290 294 301 308 313 319 326 333 339 342
243 235 239 238 242 223 239 212 217 221 225 195 188 167 150 215 257 301 307 286 269 253 268 292 299 303 298 294 301 286 292 296 298 302 294 294 303 292 282 282 284 292 300 304 307 314 323 326 331
237 239 243 242 248 247 238 233 226 230 236 258 214 184 211 274 256 280 263 293 281 270 265 281 290 293 296 286 295 289 286 284 290 296 296 286 291 295 283 279 282 288 293 296 298 307 312 316 320
239 246 254 252 253 257 252 253 249 245 240 251 247 260 249 254 253 265 274 269 277 290 283 289 294 290 288 288 294 290 287 292 285 283 282 278 278 286 293 285 280 284 286 288 292 299 301 305 310
237 247 251 253 251 251 252 254 252 250 249 250 249 249 243 246 248 257 263 266 267 279 284 283 283 281 280 283 290 281 289 288 285 273 275 280 275 276 289 290 284 282 284 286 291 293 293 297 304
240 244 245 248 249 249 251 250 256 254 255 257 259 254 251 250 237 251 261 260 265 271 277 279 276 282 281 284 290 278 281 284 287 267 269 286 280 280 275 281 281 282 284 290 294 288 289 295 297
242 246 249 250 252 253 252 252 252 252 257 258 257 255 253 247 245 253 258 260 265 271 275 283 283 283 280 274 284 277 278 278 281 269 271 279 273 275 276 276 278 283 284 289 286 281 287 292 292
239 243 246 247 248 251 252 258 248 253 252 256 258 256 253 251 249 251 254 261 267 271 278 280 284 275 278 273 274 277 277 269 274 267 265 288 278 274 275 275 279 280 285 290 287 284 286 288 289
242 244 245 241 246 248 244 256 259 259 257 257 258 258 258 250 251 252 259 267 269 274 274 279 266 267 268 265 267 276 271 270 273 267 274 285 281 273 275 277 287 292 289 302 292 286 285 286 288
233 239 245 246 243 243 242 253 254 256 265 267 264 262 257 259 254 254 258 262 267 270 273 269 263 264 269 269 273 268 276 269 265 261 264 279 276 268 268 270 282 279 278 279 281 280 286 288 296
223 229 238 247 247 239 247 257 262 262 261 260 261 261 259 256 258 257 258 261 268 272 256 263 267 267 274 275 273 263 265 268 260 257 274 268 260 259 262 276 279 275 277 278 282 287 287 298 297
220 224 227 228 212 228 246 260 262 262 255 256 257 259 259 258 258 258 260 264 265 258 261 267 268 273 282 272 272 265 263 263 263 264 266 259 260 264 259 268 269 278 276 284 289 285 296 296 295
226 235 234 228 229 243 250 251 254 256 260 261 262 262 265 265 265 264 263 262 250 253 259 262 272 281 275 270 265 264 266 261 261 260 257 259 262 265 262 265 274 279 287 285 282 293 296 297 290
236 241 251 259 246 231 268 272 262 257 259 260 261 262 261 262 265 263 255 240 248 252 262 273 272 267 267 260 260 264 263 254 252 256 256 267 272 260 255 266 271 279 280 277 288 292 297 292 289
240 228 233 242 256 263 260 288 275 262 259 257 259 259 260 261 263 263 252 252 258 263 266 268 263 263 266 260 258 264 263 259 251 261 262 259 265 261 260 265 272 270 271 282 286 293 288 287 295
250 250 247 254 258 271 261 290 269 270 266 267 267 267 267 263 257 255 256 261 264 269 260 258 254 261 256 255 254 256 260 259 254 253 254 268 259 262 268 269 271 270 275 281 287 283 281 288 297
238 226 233 238 237 250 252 226 272 267 274 279 271 277 261 251 237 241 241 243 251 254 260 258 257 263 254 236 243 255 258 254 249 251 259 255 253 253 262 266 268 276 278 285 282 282 275 298 301
238 220 146 171 202 229 227 207 236 232 277 210 80 221 279 233 234 227 227 236 245 259 262 256 252 232 218 236 243 257 259 257 252 250 236 247 248 252 257 265 275 274 287 287 279 268 278 294 294
231 211 189 174 192 213 227 230 245 259 263 266 277 298 295 244 234 214 215 211 249 255 255 228 236 220 225 240 252 254 251 245 245 247 233 233 243 257 268 274 277 288 283 274 265 274 280 285 291
211 216 219 289 252 253 210 248 260 219 210 310 271 288 280 229 210 206 205 218 237 249 214 203 209 220 233 242 251 247 248 248 232 231 237 253 261 270 275 280 284 275 272 261 271 278 273 273 283
230 208 208 202 208 234 248 251 238 226 218 117 275 281 246 201 202 203 209 226 247 221 208 218 225 228 238 242 240 245 240 236 233 238 249 255 264 269 277 275 266 261 253 262 269 266 267 265 253
233 242 223 229 234 209 301 282 189 93 214 277 276 279 218 201 196 206 210 224 215 200 206 220 230 240 233 233 233 244 245 242 245 249 252 252 255 262 266 263 253 242 254 264 260 268 273 263 244
209 235 238 237 237 243 274 286 121 311 255 315 331 211 199 201 214 207 197 218 199 195 201 215 223 223 218 238 260 254 247 248 249 243 239 244 250 257 251 252 240 240 248 262 267 268 271 264 232
Height
3147 3148 3149 3151 3157 3153 3150 3152 3153 3153 3154 3156 3158 3159 3160 3159 3160 3164 3161 3163 3163 3163 3163 3164 3166 3165 3165 3165 3165 3164 3164 3164 3163 3163 3162 3161 3161 3160 3159 3158 3156 3154 3153 3152 3150 3148 3147 3146 3145
3145 3146 3148 3149 3150 3148 3149 3150 3151 3152 3153 3154 3156 3156 3156 3158 3158 3159 3161 3162 3161 3162 3163 3164 3165 3164 3164 3165 3165 3164 3164 3164 3163 3163 3162 3161 3160 3160 3159 3158 3156 3154 3152 3151 3149 3148 3146 3145 3144
3142 3143 3147 3147 3143 3144 3146 3148 3150 3151 3152 3152 3153 3155 3155 3155 3156 3158 3159 3160 3161 3161 3162 3163 3164 3165 3164 3164 3165 3165 3164 3164 3163 3163 3162 3161 3160 3159 3159 3158 3156 3155 3153 3151 3149 3147 3145 3144 3142
3141 3141 3145 3141 3139 3142 3144 3146 3148 3150 3150 3151 3151 3153 3153 3153 3155 3157 3158 3159 3159 3160 3160 3161 3163 3163 3163 3163 3164 3164 3163 3163 3163 3163 3162 3161 3160 3159 3159 3158 3156 3155 3153 3151 3149 3147 3144 3143 3141
3137 3138 3139 3134 3136 3139 3143 3144 3146 3147 3147 3148 3148 3149 3150 3151 3153 3155 3156 3158 3159 3159 3160 3161 3161 3162 3162 3162 3162 3161 3161 3162 3162 3161 3161 3160 3160 3158 3157 3156 3155 3154 3152 3150 3149 3147 3145 3143 3141
3133 3135 3134 3130 3134 3137 3140 3142 3144 3144 3145 3145 3146 3147 3149 3151 3152 3154 3155 3156 3158 3158 3158 3159 3160 3160 3159 3159 3159 3159 3159 3159 3159 3159 3159 3158 3157 3156 3155 3154 3153 3152 3151 3150 3148 3146 3145 3143 3141
3129 3130 3128 3129 3132 3135 3138 3140 3143 3141 3141 3142 3142 3144 3148 3149 3151 3152 3154 3155 3156 3156 3157 3158 3158 3158 3157 3157 3156 3156 3156 3157 3156 3156 3155 3154 3154 3153 3152 3151 3150 3149 3149 3148 3146 3144 3143 3141 3139
3126 3125 3123 3126 3129 3131 3134 3136 3139 3138 3140 3137 3138 3141 3148 3149 3151 3152 3152 3152 3153 3154 3155 3156 3155 3155 3154 3154 3154 3154 3153 3153 3153 3153 3152 3151 3150 3149 3149 3148 3147 3147 3146 3144 3144 3142 3140 3139 3137
3121 3118 3117 3121 3125 3126 3128 3133 3134 3135 3135 3135 3137 3140 3143 3144 3147 3149 3150 3151 3151 3151 3152 3152 3152 3151 3151 3151 3151 3151 3151 3151 3150 3149 3149 3148 3147 3146 3146 3145 3143 3143 3143 3142 3141 3139 3137 3136 3135
3113 3109 3110 3119 3122 3123 3124 3126 3129 3129 3129 3132 3136 3137 3139 3142 3143 3144 3145 3146 3148 3148 3149 3149 3148 3147 3148 3148 3148 3148 3147 3147 3146 3145 3144 3144 3144 3143 3142 3141 3140 3140 3139 3138 3137 3136 3134 3132 3131
3103 3098 3110 3112 3116 3118 3120 3120 3124 3121 3122 3128 3134 3134 3136 3136 3139 3139 3141 3140 3142 3143 3144 3144 3143 3142 3143 3143 3143 3143 3142 3142 3141 3140 3140 3139 3139 3138 3137 3136 3136 3136 3135 3134 3134 3133 3131 3129 3127
3094 3095 3100 3106 3110 3112 3114 3115 3115 3114 3116 3121 3123 3124 3124 3127 3130 3133 3135 3135 3135 3136 3138 3137 3138 3138 3138 3137 3137 3137 3137 3136 3136 3135 3135 3134 3134 3134 3134 3133 3132 3131 3131 3130 3129 3129 3127 3124 3123
3086 3089 3092 3098 3102 3105 3108 3106 3107 3103 3111 3115 3115 3116 3117 3118 3121 3124 3127 3128 3129 3130 3131 3131 3131 3131 3131 3130 3130 3130 3131 3130 3130 3130 3129 3129 3128 3128 3129 3127 3127 3127 3126 3125 3124 3123 3122 3120 3118
3079 3084 3086 3090 3093 3097 3100 3098 3099 3096 3106 3106 3107 3108 3110 3111 3114 3116 3118 3121 3122 3123 3124 3123 3122 3123 3121 3122 3123 3123 3124 3124 3123 3124 3124 3125 3123 3122 3122 3122 3121 3121 3121 3120 3119 3117 3117 3115 3113
3070 3074 3076 3079 3084 3088 3094 3086 3077 3093 3100 3097 3099 3102 3103 3103 3105 3108 3111 3112 3116 3116 3115 3114 3113 3112 3113 3113 3115 3116 3116 3116 3117 3117 3118 3119 3117 3115 3115 3115 3114 3115 3116 3116 3114 3112 3110 3109 3107
3062 3066 3065 3069 3076 3079 3088 3062 3078 3085 3090 3091 3092 3092 3093 3096 3098 3100 3103 3105 3106 3105 3106 3105 3105 3105 3105 3106 3107 3108 3109 3109 3110 3111 3112 3111 3111 3109 3109 3109 3110 3109 3111 3112 3108 3106 3104 3103 3101
3053 3052 3054 3060 3066 3073 3075 3046 3068 3079 3083 3082 3082 3083 3084 3085 3089 3093 3095 3096 3096 3095 3097 3097 3097 3097 3098 3099 3099 3101 3101 3102 3102 3104 3104 3104 3104 3104 3103 3104 3105 3105 3104 3103 3102 3099 3096 3096 3094
3040 3043 3047 3051 3059 3065 3062 3049 3064 3070 3072 3070 3071 3072 3073 3074 3077 3082 3084 3085 3085 3087 3088 3089 3090 3091 3090 3091 3091 3092 3094 3095 3095 3096 3097 3098 3098 3097 3098 3099 3100 3099 3099 3096 3094 3092 3090 3088 3086
3039 3041 3043 3048 3053 3055 3053 3052 3055 3059 3058 3057 3059 3061 3062 3063 3068 3070 3072 3074 3076 3079 3080 3082 3082 3083 3083 3083 3084 3084 3086 3088 3089 3091 3091 3092 3091 3091 3092 3092 3093 3093 3092 3089 3087 3086 3083 3081 3079
3036 3037 3039 3044 3047 3049 3047 3042 3045 3048 3047 3049 3051 3052 3053 3055 3058 3061 3063 3066 3068 3070 3072 3073 3074 3075 3075 3075 3076 3077 3079 3081 3083 3085 3085 3085 3085 3085 3085 3084 3086 3084 3083 3082 3081 3079 3078 3076 3074
3030 3033 3036 3040 3042 3042 3043 3032 3035 3036 3038 3040 3040 3042 3044 3046 3049 3052 3054 3057 3061 3062 3064 3064 3065 3066 3067 3068 3069 3070 3072 3074 3077 3079 3079 3079 3079 3078 3079 3080 3079 3078 3077 3076 3075 3074 3073 3071 3069
3027 3031 3034 3037 3040 3038 3046 3026 3024 3025 3024 3028 3031 3035 3036 3039 3043 3046 3048 3051 3053 3054 3054 3056 3057 3058 3059 3061 3062 3063 3065 3068 3071 3073 3074 3074 3072 3074 3075 3073 3073 3072 3072 3072 3071 3069 3068 3067 3065
3021 3028 3033 3036 3037 3038 3037 3041 3001 3014 3013 3017 3025 3027 3028 3032 3034 3037 3040 3042 3045 3045 3046 3047 3049 3050 3052 3053 3055 3057 3060 3061 3064 3066 3067 3067 3068 3070 3068 3066 3066 3067 3068 3067 3066 3066 3065 3064 3062
3020 3024 3029 3033 3034 3032 3028 3041 2994 3005 3007 3012 3018 3019 3021 3024 3026 3028 3031 3034 3037 3038 3039 3040 3042 3043 3044 3047 3050 3053 3055 3056 3058 3060 3061 3062 3063 3064 3063 3062 3063 3063 3063 3062 3062 3061 3061 3060 3059
3015 3018 3022 3031 3031 3020 3022 3029 2994 3001 3002 3005 3010 3016 3017 3018 3021 3024 3027 3031 3032 3033 3034 3035 3036 3037 3039 3043 3046 3048 3050 3050 3052 3053 3055 3056 3058 3058 3059 3059 3058 3058 3058 3057 3057 3058 3058 3058 3057
3010 3013 3011 3015 3017 3012 3018 3007 2992 2998 3003 3005 3007 3012 3013 3016 3018 3020 3024 3027 3028 3030 3030 3031 3033 3035 3037 3040 3042 3044 3045 3044 3045 3047 3049 3051 3052 3053 3053 3053 3053 3053 3053 3054 3054 3054 3055 3055 3054
3007 3006 3011 3012 3010 3009 3004 2994 2995 2997 2997 3002 3007 3009 3010 3011 3013 3017 3020 3023 3025 3026 3027 3028 3031 3032 3034 3037 3039 3040 3040 3041 3042 3043 3044 3046 3047 3048 3048 3048 3049 3049 3051 3051 3052 3053 3053 3053 3052
3003 3006 3009 3010 3009 3006 2992 2991 2990 2992 2997 3000 3004 3003 3003 3004 3009 3014 3017 3020 3021 3023 3025 3027 3029 3030 3033 3034 3035 3035 3037 3038 3040 3041 3042 3043 3044 3045 3045 3046 3047 3048 3049 3049 3050 3051 3051 3050 3050
3001 3001 3003 3004 3002 2997 2994 2986 2985 2990 2994 2997 2999 2998 2999 3003 3007 3011 3014 3017 3018 3021 3024 3026 3028 3029 3031 3032 3033 3034 3035 3036 3037 3038 3039 3040 3042 3043 3044 3044 3045 3046 3047 3048 3049 3049 3048 3048 3048
2996 2998 2999 2999 2996 2993 2995 2990 2983 2987 2990 2994 2995 2993 2996 3001 3005 3008 3011 3015 3017 3020 3022 3024 3026 3028 3029 3031 3032 3032 3033 3034 3035 3035 3036 3038 3039 3041 3041 3043 3044 3045 3046 3047 3046 3046 3045 3045 3046